Cedar Ridge, CA

12:59 AM PDT on July 24, 2016 (GMT -0700)
Grass Valley

Weather History for KGOO - August, 2013

Change the Weather History Date:

Tuesday, August 6, 2013

  Actual Average (KBLU) Record (KBLU)
Temperature  
Mean Temperature 74 °F -  
Max Temperature 82 °F 80 °F 92 °F (1978)
Min Temperature 66 °F 60 °F 43 °F (1957)
Cooling Degree Days 9    
Growing Degree Days 24 (Base 50)    
Moisture  
Dew Point 40 °F    
Average Humidity 31    
Maximum Humidity 46    
Minimum Humidity 19    
Precipitation  
Precipitation 0.00 in - - ()
Sea Level Pressure  
Sea Level Pressure 30.05 in    
Wind  
Wind Speed 2 mph (WSW)    
Max Wind Speed 9 mph    
Max Gust Speed -    
Visibility 10 miles    
Events      
Averages and records for this station are not official NWS values.
T = Trace of Precipitation, MM = Missing Value Source: NWS Daily Summary

Daily Weather History Graph

Daily Weather History Graph

Search for Another Location

Airport or City:

Trip Planner

Search our weather history database for the weather conditions in past years. The results will help you decide how hot, cold, wet, or windy it might be!

Date:

Astronomy

Aug. 06, 2013 Rise Set
Actual Time 6:09 AM PDT 8:10 PM PDT
Civil Twilight 5:39 AM PDT 8:39 PM PDT
Nautical Twilight 5:03 AM PDT 9:15 PM PDT
Astronomical Twilight 4:24 AM PDT 9:53 PM PDT
Moon 6:04 AM PDT (8/6) 7:48 PM PDT (8/6)
Length of Visible Light 14h 59m
Length of Day
14h 00m
Waning Crescent, 0% of the Moon is Illuminated
Aug 6
Waning Crescent
Aug 6
New
Aug 14
First Quarter
Aug 20
Full
Aug 28
Last Quarter

Hourly Weather History & Observations

Time (PDT) Temp. Dew Point Humidity Pressure Visibility Wind Dir Wind Speed Gust Speed Precip Events Conditions
12:00 AM 71.6 °F 41.0 °F 33% 30.05 in 10.0 mi Calm Calm - N/A   Clear
12:20 AM 71.6 °F 41.0 °F 33% 30.05 in 10.0 mi Calm Calm - N/A   Clear
12:40 AM 71.6 °F 41.0 °F 33% 30.05 in 10.0 mi Calm Calm - N/A   Clear
1:00 AM 71.6 °F 41.0 °F 33% 30.05 in 10.0 mi Calm Calm - N/A   Clear
1:20 AM 68.0 °F 41.0 °F 37% 30.05 in 10.0 mi East 4.6 mph - N/A   Clear
1:40 AM 68.0 °F 41.0 °F 37% 30.04 in 10.0 mi Calm Calm - N/A   Clear
2:00 AM 68.0 °F 41.0 °F 37% 30.04 in 10.0 mi Calm Calm - N/A   Clear
2:20 AM 69.8 °F 41.0 °F 35% 30.04 in 10.0 mi Calm Calm - N/A   Clear
2:40 AM 69.8 °F 41.0 °F 35% 30.04 in 10.0 mi Calm Calm - N/A   Clear
3:00 AM 69.8 °F 41.0 °F 35% 30.04 in 10.0 mi Calm Calm - N/A   Clear
3:20 AM 69.8 °F 41.0 °F 35% 30.04 in 10.0 mi Calm Calm - N/A   Clear
3:40 AM 69.8 °F 41.0 °F 35% 30.04 in 10.0 mi Calm Calm - N/A   Clear
4:00 AM 68.0 °F 41.0 °F 37% 30.04 in 10.0 mi Calm Calm - N/A   Clear
4:20 AM 68.0 °F 41.0 °F 37% 30.04 in 10.0 mi Calm Calm - N/A   Clear
4:40 AM 66.2 °F 39.2 °F 37% 30.04 in 10.0 mi Calm Calm - N/A   Clear
5:00 AM 68.0 °F 39.2 °F 35% 30.03 in 10.0 mi Calm Calm - N/A   Clear
5:20 AM 68.0 °F 39.2 °F 35% 30.03 in 10.0 mi Calm Calm - N/A   Clear
5:40 AM 68.0 °F 39.2 °F 35% 30.03 in 10.0 mi Calm Calm - N/A   Clear
6:00 AM 68.0 °F 39.2 °F 35% 30.04 in 10.0 mi Calm Calm - N/A   Clear
6:20 AM 68.0 °F 37.4 °F 33% 30.04 in 10.0 mi Calm Calm - N/A   Clear
6:40 AM 68.0 °F 39.2 °F 35% 30.04 in 10.0 mi Calm Calm - N/A   Clear
7:00 AM 68.0 °F 39.2 °F 35% 30.04 in 10.0 mi Calm Calm - N/A   Clear
7:15 AM 68.0 °F 41.0 °F 37% 30.05 in 10.0 mi Calm Calm - N/A   Clear
11:00 AM 78.8 °F 39.2 °F 24% 30.07 in 10.0 mi Calm Calm - N/A   Clear
11:20 AM 77.0 °F 39.2 °F 26% 30.07 in 10.0 mi NNW 4.6 mph - N/A   Clear
11:40 AM 80.6 °F 39.2 °F 23% 30.07 in 10.0 mi WNW 4.6 mph - N/A   Clear
12:00 PM 80.6 °F 39.2 °F 23% 30.07 in 10.0 mi WNW 4.6 mph - N/A   Clear
12:20 PM 80.6 °F 39.2 °F 23% 30.07 in 10.0 mi West 3.5 mph - N/A   Clear
12:40 PM 82.4 °F 39.2 °F 21% 30.07 in 10.0 mi West 4.6 mph - N/A   Clear
1:00 PM 80.6 °F 41.0 °F 24% 30.07 in 10.0 mi WNW 6.9 mph - N/A   Clear
1:20 PM 80.6 °F 41.0 °F 24% 30.07 in 10.0 mi SW 6.9 mph - N/A   Clear
1:40 PM 80.6 °F 41.0 °F 24% 30.07 in 10.0 mi West 4.6 mph - N/A   Clear
2:00 PM 80.6 °F 41.0 °F 24% 30.06 in 10.0 mi West 8.1 mph - N/A   Clear
2:20 PM 80.6 °F 41.0 °F 24% 30.06 in 10.0 mi West 9.2 mph - N/A   Clear
2:40 PM 80.6 °F 41.0 °F 24% 30.06 in 10.0 mi WNW 8.1 mph - N/A   Clear
3:00 PM 80.6 °F 39.2 °F 23% 30.06 in 10.0 mi SW 6.9 mph - N/A   Clear
3:20 PM 82.4 °F 39.2 °F 21% 30.06 in 10.0 mi WNW 8.1 mph - N/A   Clear
3:40 PM 82.4 °F 37.4 °F 20% 30.06 in 10.0 mi West 5.8 mph - N/A   Clear
4:00 PM 80.6 °F 37.4 °F 21% 30.05 in 10.0 mi Calm Calm - N/A   Clear
4:20 PM 80.6 °F 37.4 °F 21% 30.05 in 10.0 mi West 5.8 mph - N/A   Clear
4:40 PM 82.4 °F 35.6 °F 19% 30.04 in 10.0 mi WSW 8.1 mph - N/A   Clear
5:00 PM 80.6 °F 37.4 °F 21% 30.04 in 10.0 mi Calm Calm - N/A   Clear
5:20 PM 80.6 °F 37.4 °F 21% 30.05 in 10.0 mi SW 5.8 mph - N/A   Clear
5:40 PM 80.6 °F 37.4 °F 21% 30.05 in 10.0 mi WSW 4.6 mph - N/A   Clear
6:00 PM 80.6 °F 35.6 °F 20% 30.05 in 10.0 mi Calm Calm - N/A   Clear
6:20 PM 78.8 °F 37.4 °F 23% 30.04 in 10.0 mi SW 6.9 mph - N/A   Clear
6:40 PM 78.8 °F 37.4 °F 23% 30.05 in 10.0 mi SW 4.6 mph - N/A   Clear
7:00 PM 77.0 °F 37.4 °F 24% 30.05 in 10.0 mi Calm Calm - N/A   Clear
7:20 PM 77.0 °F 37.4 °F 24% 30.05 in 10.0 mi Calm Calm - N/A   Clear
7:40 PM 75.2 °F 39.2 °F 27% 30.05 in 10.0 mi Calm Calm - N/A   Clear
8:00 PM 73.4 °F 39.2 °F 29% 30.05 in 10.0 mi Calm Calm - N/A   Clear
8:20 PM 71.6 °F 41.0 °F 33% 30.05 in 10.0 mi Calm Calm - N/A   Clear
8:40 PM 69.8 °F 42.8 °F 38% 30.05 in 10.0 mi Calm Calm - N/A   Clear
9:00 PM 68.0 °F 44.6 °F 43% 30.06 in 10.0 mi Calm Calm - N/A   Clear
9:20 PM 68.0 °F 44.6 °F 43% 30.06 in 10.0 mi Calm Calm - N/A   Clear
9:40 PM 68.0 °F 44.6 °F 43% 30.07 in 10.0 mi ESE 3.5 mph - N/A   Clear
10:00 PM 68.0 °F 44.6 °F 43% 30.07 in 10.0 mi Calm Calm - N/A   Clear
10:20 PM 66.2 °F 44.6 °F 46% 30.07 in 10.0 mi SE 3.5 mph - N/A   Clear
10:40 PM 68.0 °F 42.8 °F 40% 30.07 in 10.0 mi ESE 5.8 mph - N/A   Clear
11:00 PM 68.0 °F 42.8 °F 40% 30.07 in 10.0 mi ESE 5.8 mph - N/A   Clear
11:20 PM 69.8 °F 42.8 °F 38% 30.07 in 10.0 mi ESE 6.9 mph - N/A   Clear
11:40 PM 66.2 °F 42.8 °F 43% 30.07 in 10.0 mi ESE 5.8 mph - N/A   Clear